Date String (YYYY-MM-DD hh:mm:ss) UTC,Instrument flags,Ambient pressure (hPa),Sample flow (lpm),Bypass flow (lpm),Sample temperature (°C),Ambient temperature (°C),ASC tube jacket temperature (°C),LED temperature (°C),Box temperature (°C),Sample RH (%),Span deviation,Mass concentration (μg/m³),Mass concentration (μg/m³),Mass concentration (μg/m³)
DateTimeUTC,F1_M11,P_M11,Q1_M11,Q2_M11,T1_M11,T2_M11,T3_M11,T4_M11,T5_M11,U1_M11,ZSPAN_M11,X0_M11,X2_M11,X1_M11
2022-01-02 08:00:00,,0823.6,5.00,0.00,22.9,23.4,00.0,31.7,24.8,05.1,0000.0,0000.31,0000.08,0000.01
2022-01-02 08:01:00,,0823.6,5.00,0.00,22.9,23.1,00.0,31.8,24.7,04.6,0000.0,0000.31,0000.08,0000.01
2022-01-02 08:02:00,,0823.7,5.00,0.00,22.9,22.9,00.0,31.8,24.6,04.6,0000.0,0000.36,0000.08,0000.01
2022-01-02 08:03:00,,0823.7,5.00,0.00,22.9,22.6,00.0,31.8,24.5,04.8,0000.0,0001.21,0000.10,0000.01
2022-01-02 08:04:00,,0823.7,4.99,0.00,22.8,22.4,00.0,31.8,24.5,04.5,0000.0,0001.49,0000.10,0000.01
2022-01-02 08:05:00,,0823.6,5.02,0.00,22.8,22.3,00.0,31.7,24.4,04.1,0000.0,0001.45,0000.09,0000.01
2022-01-02 08:06:00,,0823.6,4.99,0.00,22.7,22.2,00.0,31.7,24.3,04.5,0000.0,0002.16,0000.08,0000.01
2022-01-02 08:07:00,,0823.7,5.01,0.00,22.7,22.1,00.0,31.7,24.3,04.7,0000.0,0004.60,0000.05,0000.01
2022-01-02 08:08:00,,0823.7,4.99,0.00,22.6,22.0,00.0,31.7,24.2,05.3,0000.0,0005.89,0000.05,0000.01
2022-01-02 08:09:00,,0823.7,5.00,0.00,22.6,22.0,00.0,31.7,24.2,05.4,0000.0,0005.89,0000.05,0000.01
2022-01-02 08:10:00,,0823.7,5.00,0.00,22.7,22.6,00.0,31.7,24.4,05.3,0000.0,0005.82,0000.05,0000.01
2022-01-02 08:11:00,,0823.7,5.00,0.00,22.8,23.3,00.0,31.7,24.7,05.3,0000.0,0005.76,0000.06,0000.01
2022-01-02 08:12:00,,0823.7,5.00,0.00,22.9,23.7,00.0,31.8,24.8,05.3,0000.0,0005.77,0000.06,0000.01
2022-01-02 08:13:00,,0823.7,4.99,0.00,22.9,23.4,00.0,31.8,24.8,05.3,0000.0,0005.74,0000.06,0000.01
2022-01-02 08:14:00,,0823.7,5.00,0.00,22.9,23.1,00.0,31.8,24.7,05.1,0000.0,0005.03,0000.04,0000.01
2022-01-02 08:15:00,,0823.7,4.99,0.00,22.9,22.8,00.0,31.8,24.6,05.1,0000.0,0004.64,0000.05,0000.01
2022-01-02 08:16:00,,0823.7,5.01,0.00,22.9,22.6,00.0,31.8,24.5,05.0,0000.0,0004.66,0000.05,0000.01
2022-01-02 08:17:00,,0823.7,4.99,0.00,22.8,22.4,00.0,31.8,24.4,04.9,0000.0,0004.08,0000.06,0000.01
2022-01-02 08:18:00,,0823.7,5.00,0.00,22.8,22.3,00.0,31.8,24.3,04.8,0000.0,0001.66,0000.06,0000.01
2022-01-02 08:19:00,,0823.7,5.01,0.00,22.7,22.2,00.0,31.8,24.3,04.8,0000.0,0000.18,0000.06,0000.01
2022-01-02 08:20:00,,0823.7,4.99,0.00,22.7,22.0,00.0,31.7,24.2,05.0,0000.0,0000.21,0000.07,0000.01
2022-01-02 08:21:00,,0823.7,5.01,0.00,22.6,21.9,00.0,31.7,24.2,05.1,0000.0,0000.26,0000.09,0000.01
2022-01-02 08:22:00,,0823.8,4.99,0.00,22.6,22.0,00.0,31.7,24.2,05.0,0000.0,0000.25,0000.09,0000.01
2022-01-02 08:23:00,,0823.8,5.00,0.00,22.7,22.6,00.0,31.7,24.4,05.0,0000.0,0000.24,0000.08,0000.01
2022-01-02 08:24:00,,0823.8,5.00,0.00,22.8,23.3,00.0,31.7,24.6,04.6,0000.0,0000.26,0000.09,0000.01
2022-01-02 08:25:00,,0823.8,5.00,0.00,22.9,23.5,00.0,31.8,24.7,04.5,0000.0,0000.27,0000.10,0000.01
2022-01-02 08:26:00,,0823.7,5.00,0.00,22.9,23.2,00.0,31.8,24.7,04.5,0000.0,0000.29,0000.11,0000.01
2022-01-02 08:27:00,,0823.7,5.00,0.00,22.9,22.9,00.0,31.8,24.6,04.9,0000.0,0000.27,0000.11,0000.01
2022-01-02 08:28:00,,0823.7,5.01,0.00,22.8,22.7,00.0,31.8,24.5,05.3,0000.0,0000.22,0000.09,0000.01
2022-01-02 08:29:00,,0823.7,4.99,0.00,22.8,22.5,00.0,31.8,24.4,05.6,0000.0,0001.22,0000.10,0000.01
2022-01-02 08:30:00,,0823.8,5.00,0.00,22.7,22.3,00.0,31.7,24.3,05.8,0000.0,0001.96,0000.11,0000.02
2022-01-02 08:31:00,,0823.8,4.99,0.00,22.7,22.2,00.0,31.7,24.3,05.0,0000.0,0001.94,0000.11,0000.02
2022-01-02 08:32:00,,0823.8,5.01,0.00,22.7,22.1,00.0,31.7,24.2,04.9,0000.0,0001.90,0000.09,0000.02
2022-01-02 08:33:00,,0823.9,4.99,0.00,22.6,22.0,00.0,31.7,24.2,05.1,0000.0,0002.32,0000.08,0000.02
2022-01-02 08:34:00,,0823.9,5.01,0.00,22.6,22.2,00.0,31.7,24.2,05.3,0000.0,0003.15,0000.08,0000.02
2022-01-02 08:35:00,,0824.0,4.99,0.00,22.7,22.9,00.0,31.7,24.5,05.2,0000.0,0003.16,0000.09,0000.02
2022-01-02 08:36:00,,0824.0,5.00,0.00,22.9,23.5,00.0,31.8,24.7,05.2,0000.0,0003.16,0000.08,0000.02
2022-01-02 08:37:00,,0823.9,5.00,0.00,22.9,23.5,00.0,31.8,24.8,04.9,0000.0,0003.10,0000.06,0000.02
2022-01-02 08:38:00,,0823.8,5.00,0.00,22.9,23.2,00.0,31.8,24.7,04.3,0000.0,0003.11,0000.06,0000.02
2022-01-02 08:39:00,,0823.9,5.00,0.00,22.9,22.9,00.0,31.8,24.7,04.1,0000.0,0003.14,0000.08,0000.02
2022-01-02 08:40:00,,0823.9,5.00,0.00,22.9,22.7,00.0,31.8,24.6,04.3,0000.0,0002.12,0000.09,0000.02
2022-01-02 08:41:00,,0823.8,5.01,0.00,22.8,22.5,00.0,31.8,24.5,04.3,0000.0,0001.41,0000.07,0000.02
2022-01-02 08:42:00,,0823.8,4.99,0.00,22.8,22.4,00.0,31.8,24.4,04.6,0000.0,0001.60,0000.07,0000.01
2022-01-02 08:43:00,,0823.8,5.00,0.00,22.7,22.2,00.0,31.8,24.3,04.9,0000.0,0001.65,0000.07,0000.01
2022-01-02 08:44:00,,0823.8,5.01,0.00,22.7,22.1,00.0,31.7,24.3,05.0,0000.0,0001.21,0000.08,0000.01
2022-01-02 08:45:00,,0823.9,4.99,0.00,22.6,22.0,00.0,31.7,24.2,05.0,0000.0,0000.44,0000.09,0000.01
2022-01-02 08:46:00,,0823.9,5.00,0.00,22.6,21.9,00.0,31.7,24.2,05.2,0000.0,0000.46,0000.10,0000.01
2022-01-02 08:47:00,,0823.8,5.01,0.00,22.6,22.3,00.0,31.7,24.3,04.6,0000.0,0000.46,0000.10,0000.01
2022-01-02 08:48:00,,0823.9,4.99,0.00,22.7,23.0,00.0,31.7,24.5,04.6,0000.0,0000.58,0000.11,0000.02
2022-01-02 08:49:00,,0824.0,4.99,0.00,22.9,23.5,00.0,31.7,24.7,04.8,0000.0,0000.70,0000.13,0000.01
2022-01-02 08:50:00,,0823.9,5.01,0.00,22.9,23.4,00.0,31.8,24.8,04.9,0000.0,0000.67,0000.11,0000.01
2022-01-02 08:51:00,,0823.9,5.00,0.00,22.9,23.1,00.0,31.8,24.7,05.1,0000.0,0000.66,0000.11,0000.01
2022-01-02 08:52:00,,0823.9,5.01,0.00,22.9,22.9,00.0,31.8,24.6,05.2,0000.0,0000.65,0000.10,0000.01
2022-01-02 08:53:00,,0824.0,4.99,0.00,22.8,22.6,00.0,31.8,24.5,04.8,0000.0,0000.44,0000.09,0000.01
2022-01-02 08:54:00,,0824.0,4.99,0.00,22.8,22.4,00.0,31.8,24.4,04.6,0000.0,0001.00,0000.10,0000.01
2022-01-02 08:55:00,,0824.0,5.01,0.00,22.7,22.2,00.0,31.8,24.3,04.6,0000.0,0001.56,0000.10,0000.02
2022-01-02 08:56:00,,0824.0,4.99,0.00,22.7,22.1,00.0,31.7,24.2,04.6,0000.0,0001.55,0000.09,0000.01
2022-01-02 08:57:00,,0824.0,5.00,0.00,22.6,22.0,00.0,31.7,24.2,04.7,0000.0,0001.49,0000.07,0000.01
2022-01-02 08:58:00,,0824.0,5.01,0.00,22.6,21.9,00.0,31.7,24.1,04.8,0000.0,0001.50,0000.07,0000.01
2022-01-02 08:59:00,,0824.1,4.98,0.00,22.6,22.1,00.0,31.7,24.1,04.8,0000.0,0001.39,0000.06,0000.01
